Time,TemperatureF,DewpointF,PressureIn,WindDirection,WindDirectionDegrees,WindSpeedMPH,WindSpeedGustMPH,Humidity,HourlyPrecipIn,Conditions,Clouds,dailyrainin,SolarRadiationWatts/m^2,SoftwareType,DateUTC
2013-10-03 00:03:00,54.0,51.0,-100.00,West,279,10.0,12.0,89,0.00,,,0.00,0.000000,,2013-10-03 04:03:00,
2013-10-03 00:44:00,54.0,51.0,-100.00,West,279,10.0,12.0,89,0.00,,,0.00,0.000000,,2013-10-03 04:44:00,
2013-10-03 00:53:00,54.0,51.0,-100.00,West,279,10.0,12.0,89,0.00,,,0.00,0.000000,,2013-10-03 04:53:00,
2013-10-03 01:23:00,54.0,51.0,-100.00,NNW,334,4.0,12.0,88,0.00,,,0.00,0.000000,,2013-10-03 05:23:00,
2013-10-03 01:33:00,54.0,51.0,-100.00,NNW,334,4.0,12.0,88,0.00,,,0.00,0.000000,,2013-10-03 05:33:00,
2013-10-03 01:43:00,54.0,51.0,-100.00,NNW,334,4.0,12.0,88,0.00,,,0.00,0.000000,,2013-10-03 05:43:00,
2013-10-03 01:52:00,54.0,51.0,-100.00,NNW,334,4.0,12.0,88,0.00,,,0.00,0.000000,,2013-10-03 05:52:00,
2013-10-03 02:02:00,54.0,51.0,-100.00,NNW,334,4.0,12.0,88,0.00,,,0.00,0.000000,,2013-10-03 06:02:00,
2013-10-03 02:22:00,54.0,51.0,-100.00,NW,316,7.0,10.0,91,0.00,,,0.00,0.000000,,2013-10-03 06:22:00,
2013-10-03 02:32:00,54.0,51.0,-100.00,NW,316,7.0,10.0,91,0.00,,,0.00,0.000000,,2013-10-03 06:32:00,
2013-10-03 02:42:00,54.0,51.0,-100.00,NW,316,7.0,10.0,91,0.00,,,0.00,0.000000,,2013-10-03 06:42:00,
2013-10-03 02:52:00,54.0,51.0,-100.00,NW,316,7.0,10.0,91,0.00,,,0.00,0.000000,,2013-10-03 06:52:00,
2013-10-03 03:02:00,54.0,51.0,-100.00,NW,316,7.0,10.0,91,0.00,,,0.00,0.000000,,2013-10-03 07:02:00,
2013-10-03 03:03:00,54.0,51.0,-100.00,NW,320,6.0,10.0,90,0.00,,,0.00,0.000000,,2013-10-03 07:03:00,
2013-10-03 03:22:00,54.0,51.0,-100.00,NW,320,6.0,10.0,90,0.00,,,0.00,0.000000,,2013-10-03 07:22:00,
2013-10-03 03:32:00,54.0,51.0,-100.00,NW,320,6.0,10.0,90,0.00,,,0.00,0.000000,,2013-10-03 07:32:00,
2013-10-03 03:42:00,54.0,51.0,-100.00,NW,320,6.0,10.0,90,0.00,,,0.00,0.000000,,2013-10-03 07:42:00,
2013-10-03 03:52:00,54.0,51.0,-100.00,NW,320,6.0,10.0,90,0.00,,,0.00,0.000000,,2013-10-03 07:52:00,
2013-10-03 04:22:00,54.0,51.0,-100.00,NNW,329,4.0,7.0,90,0.00,,,0.00,0.000000,,2013-10-03 08:22:00,
2013-10-03 04:32:00,54.0,51.0,-100.00,NNW,329,4.0,7.0,90,0.00,,,0.00,0.000000,,2013-10-03 08:32:00,
2013-10-03 04:42:00,54.0,51.0,-100.00,NNW,329,4.0,7.0,90,0.00,,,0.00,0.000000,,2013-10-03 08:42:00,
2013-10-03 04:52:00,54.0,51.0,-100.00,NNW,329,4.0,7.0,90,0.00,,,0.00,0.000000,,2013-10-03 08:52:00,
2013-10-03 05:02:00,54.0,51.0,-100.00,NNW,329,4.0,7.0,90,0.00,,,0.00,0.000000,,2013-10-03 09:02:00,
2013-10-03 05:03:00,52.0,50.0,-100.00,North,5,1.0,4.0,94,0.00,,,0.00,0.000000,,2013-10-03 09:03:00,
2013-10-03 05:43:00,52.0,50.0,-100.00,North,5,1.0,4.0,94,0.00,,,0.00,0.000000,,2013-10-03 09:43:00,
2013-10-03 05:53:00,52.0,50.0,-100.00,North,5,1.0,4.0,94,0.00,,,0.00,0.000000,,2013-10-03 09:53:00,
2013-10-03 06:03:00,53.0,51.0,-100.00,North,1,3.0,5.0,93,0.00,,,0.00,0.000000,,2013-10-03 10:03:00,
2013-10-03 06:23:00,53.0,51.0,-100.00,North,1,3.0,5.0,93,0.00,,,0.00,0.000000,,2013-10-03 10:23:00,
2013-10-03 06:33:00,53.0,51.0,-100.00,North,1,3.0,5.0,93,0.00,,,0.00,0.000000,,2013-10-03 10:33:00,
2013-10-03 06:43:00,53.0,51.0,-100.00,North,1,3.0,5.0,93,0.00,,,0.00,0.000000,,2013-10-03 10:43:00,
2013-10-03 06:52:00,53.0,51.0,-100.00,North,1,3.0,5.0,93,0.00,,,0.00,0.000000,,2013-10-03 10:52:00,
2013-10-03 07:23:00,54.0,52.0,-100.00,NE,38,9.0,11.0,92,0.00,,,0.00,0.000000,,2013-10-03 11:23:00,
2013-10-03 07:33:00,54.0,52.0,-100.00,NE,38,9.0,11.0,92,0.00,,,0.00,0.000000,,2013-10-03 11:33:00,
2013-10-03 07:42:00,54.0,52.0,-100.00,NE,38,9.0,11.0,92,0.00,,,0.00,0.000000,,2013-10-03 11:42:00,
2013-10-03 07:52:00,54.0,52.0,-100.00,NE,38,9.0,11.0,92,0.00,,,0.00,0.000000,,2013-10-03 11:52:00,
2013-10-03 08:02:00,54.0,52.0,-100.00,NE,38,9.0,11.0,92,0.00,,,0.00,0.000000,,2013-10-03 12:02:00,
2013-10-03 08:22:00,54.0,53.0,-100.00,NE,54,10.0,14.0,97,0.00,,,0.00,4.000000,,2013-10-03 12:22:00,
2013-10-03 08:32:00,54.0,53.0,-100.00,NE,54,10.0,14.0,97,0.00,,,0.00,4.000000,,2013-10-03 12:32:00,
2013-10-03 08:42:00,54.0,53.0,-100.00,NE,54,10.0,14.0,97,0.00,,,0.00,4.000000,,2013-10-03 12:42:00,
2013-10-03 08:52:00,54.0,53.0,-100.00,NE,54,10.0,14.0,97,0.00,,,0.00,4.000000,,2013-10-03 12:52:00,
2013-10-03 09:02:00,54.0,53.0,-100.00,NE,54,10.0,14.0,97,0.00,,,0.00,4.000000,,2013-10-03 13:02:00,
2013-10-03 09:42:00,55.0,54.0,-100.00,NNE,27,8.0,13.0,95,0.00,,,0.00,55.000000,,2013-10-03 13:42:00,
2013-10-03 09:52:00,55.0,54.0,-100.00,NNE,27,8.0,13.0,95,0.00,,,0.00,55.000000,,2013-10-03 13:52:00,
2013-10-03 10:02:00,55.0,54.0,-100.00,NNE,27,8.0,13.0,95,0.00,,,0.00,55.000000,,2013-10-03 14:02:00,
2013-10-03 10:42:00,58.0,54.0,-100.00,NNE,29,5.0,12.0,88,0.00,,,0.00,158.000000,,2013-10-03 14:42:00,
2013-10-03 10:52:00,58.0,54.0,-100.00,NNE,29,5.0,12.0,88,0.00,,,0.00,158.000000,,2013-10-03 14:52:00,
2013-10-03 11:01:00,58.0,54.0,-100.00,NNE,29,5.0,12.0,88,0.00,,,0.00,158.000000,,2013-10-03 15:01:00,
2013-10-03 11:03:00,62.0,57.0,-100.00,NE,44,4.0,8.0,83,0.00,,,0.00,270.000000,,2013-10-03 15:03:00,
2013-10-03 11:22:00,62.0,57.0,-100.00,NE,44,4.0,8.0,83,0.00,,,0.00,270.000000,,2013-10-03 15:22:00,
2013-10-03 11:33:00,62.0,57.0,-100.00,NE,44,4.0,8.0,83,0.00,,,0.00,270.000000,,2013-10-03 15:33:00,
2013-10-03 11:43:00,62.0,57.0,-100.00,NE,44,4.0,8.0,83,0.00,,,0.00,270.000000,,2013-10-03 15:43:00,
2013-10-03 11:54:00,62.0,57.0,-100.00,NE,44,4.0,8.0,83,0.00,,,0.00,270.000000,,2013-10-03 15:54:00,
2013-10-03 12:03:00,62.0,56.0,-100.00,NNE,27,2.0,6.0,82,0.00,,,0.00,329.000000,,2013-10-03 16:03:00,
2013-10-03 12:23:00,62.0,56.0,-100.00,NNE,27,2.0,6.0,82,0.00,,,0.00,329.000000,,2013-10-03 16:23:00,
2013-10-03 12:33:00,62.0,56.0,-100.00,NNE,27,2.0,6.0,82,0.00,,,0.00,329.000000,,2013-10-03 16:33:00,
2013-10-03 12:43:00,62.0,56.0,-100.00,NNE,27,2.0,6.0,82,0.00,,,0.00,329.000000,,2013-10-03 16:43:00,
2013-10-03 12:53:00,62.0,56.0,-100.00,NNE,27,2.0,6.0,82,0.00,,,0.00,329.000000,,2013-10-03 16:53:00,
2013-10-03 13:22:00,63.0,55.0,-100.00,NNE,27,1.0,7.0,75,0.00,,,0.00,453.000000,,2013-10-03 17:22:00,
2013-10-03 13:33:00,63.0,55.0,-100.00,NNE,27,1.0,7.0,75,0.00,,,0.00,453.000000,,2013-10-03 17:33:00,
2013-10-03 13:42:00,63.0,55.0,-100.00,NNE,27,1.0,7.0,75,0.00,,,0.00,453.000000,,2013-10-03 17:42:00,
2013-10-03 13:52:00,63.0,55.0,-100.00,NNE,27,1.0,7.0,75,0.00,,,0.00,453.000000,,2013-10-03 17:52:00,
2013-10-03 14:02:00,63.0,55.0,-100.00,NNE,27,1.0,7.0,75,0.00,,,0.00,453.000000,,2013-10-03 18:02:00,
2013-10-03 14:22:00,61.0,53.0,-100.00,East,94,4.0,7.0,76,0.00,,,0.00,457.000000,,2013-10-03 18:22:00,
2013-10-03 14:32:00,61.0,53.0,-100.00,East,94,4.0,7.0,76,0.00,,,0.00,457.000000,,2013-10-03 18:32:00,
2013-10-03 14:42:00,61.0,53.0,-100.00,East,94,4.0,7.0,76,0.00,,,0.00,457.000000,,2013-10-03 18:42:00,
2013-10-03 14:52:00,61.0,53.0,-100.00,East,94,4.0,7.0,76,0.00,,,0.00,457.000000,,2013-10-03 18:52:00,
2013-10-03 15:01:00,61.0,53.0,-100.00,East,94,4.0,7.0,76,0.00,,,0.00,457.000000,,2013-10-03 19:01:00,
2013-10-03 15:22:00,64.0,59.0,-100.00,ESE,122,3.0,6.0,83,0.00,,,0.00,291.000000,,2013-10-03 19:22:00,
2013-10-03 15:32:00,64.0,59.0,-100.00,ESE,122,3.0,6.0,83,0.00,,,0.00,291.000000,,2013-10-03 19:32:00,
2013-10-03 15:42:00,64.0,59.0,-100.00,ESE,122,3.0,6.0,83,0.00,,,0.00,291.000000,,2013-10-03 19:42:00,
2013-10-03 15:53:00,64.0,59.0,-100.00,ESE,122,3.0,6.0,83,0.00,,,0.00,291.000000,,2013-10-03 19:53:00,
2013-10-03 16:02:00,64.0,59.0,-100.00,ESE,122,3.0,6.0,83,0.00,,,0.00,291.000000,,2013-10-03 20:02:00,
2013-10-03 16:22:00,61.0,55.0,-100.00,SE,142,3.0,6.0,82,0.00,,,0.00,214.000000,,2013-10-03 20:22:00,
2013-10-03 16:32:00,61.0,55.0,-100.00,SE,142,3.0,6.0,82,0.00,,,0.00,214.000000,,2013-10-03 20:32:00,
2013-10-03 16:42:00,61.0,55.0,-100.00,SE,142,3.0,6.0,82,0.00,,,0.00,214.000000,,2013-10-03 20:42:00,
2013-10-03 16:52:00,61.0,55.0,-100.00,SE,142,3.0,6.0,82,0.00,,,0.00,214.000000,,2013-10-03 20:52:00,
2013-10-03 17:02:00,61.0,55.0,-100.00,SE,142,3.0,6.0,82,0.00,,,0.00,214.000000,,2013-10-03 21:02:00,
2013-10-03 17:03:00,58.0,55.0,-100.00,South,178,7.0,10.0,90,0.00,,,0.00,41.000000,,2013-10-03 21:03:00,
2013-10-03 17:43:00,58.0,55.0,-100.00,South,178,7.0,10.0,90,0.00,,,0.00,41.000000,,2013-10-03 21:43:00,
2013-10-03 17:54:00,58.0,55.0,-100.00,South,178,7.0,10.0,90,0.00,,,0.00,41.000000,,2013-10-03 21:54:00,
2013-10-03 18:03:00,57.0,54.0,-100.00,SSE,149,7.0,10.0,91,0.00,,,0.00,17.000000,,2013-10-03 22:03:00,
2013-10-03 18:23:00,57.0,54.0,-100.00,SSE,149,7.0,10.0,91,0.00,,,0.00,17.000000,,2013-10-03 22:23:00,
2013-10-03 18:33:00,57.0,54.0,-100.00,SSE,149,7.0,10.0,91,0.00,,,0.00,17.000000,,2013-10-03 22:33:00,
2013-10-03 18:43:00,57.0,54.0,-100.00,SSE,149,7.0,10.0,91,0.00,,,0.00,17.000000,,2013-10-03 22:43:00,
2013-10-03 18:54:00,57.0,54.0,-100.00,SSE,149,7.0,10.0,91,0.00,,,0.00,17.000000,,2013-10-03 22:54:00,
2013-10-03 19:43:00,57.0,53.0,-100.00,South,177,7.0,10.0,88,0.00,,,0.00,13.000000,,2013-10-03 23:43:00,
2013-10-03 19:53:00,57.0,53.0,-100.00,South,177,7.0,10.0,88,0.00,,,0.00,13.000000,,2013-10-03 23:53:00,
2013-10-03 20:02:00,57.0,53.0,-100.00,South,177,7.0,10.0,88,0.00,,,0.00,13.000000,,2013-10-04 00:02:00,
2013-10-03 20:22:00,57.0,54.0,-100.00,SSW,193,8.0,10.0,89,0.00,,,0.00,0.000000,,2013-10-04 00:22:00,
2013-10-03 20:32:00,57.0,54.0,-100.00,SSW,193,8.0,10.0,89,0.00,,,0.00,0.000000,,2013-10-04 00:32:00,
2013-10-03 20:42:00,57.0,54.0,-100.00,SSW,193,8.0,10.0,89,0.00,,,0.00,0.000000,,2013-10-04 00:42:00,
2013-10-03 20:52:00,57.0,54.0,-100.00,SSW,193,8.0,10.0,89,0.00,,,0.00,0.000000,,2013-10-04 00:52:00,
2013-10-03 21:02:00,57.0,54.0,-100.00,SSW,193,8.0,10.0,89,0.00,,,0.00,0.000000,,2013-10-04 01:02:00,
2013-10-03 21:22:00,56.0,54.0,-100.00,SW,217,9.0,10.0,92,0.00,,,0.00,0.000000,,2013-10-04 01:22:00,
2013-10-03 21:32:00,56.0,54.0,-100.00,SW,217,9.0,10.0,92,0.00,,,0.00,0.000000,,2013-10-04 01:32:00,
2013-10-03 21:42:00,56.0,54.0,-100.00,SW,217,9.0,10.0,92,0.00,,,0.00,0.000000,,2013-10-04 01:42:00,
2013-10-03 21:52:00,56.0,54.0,-100.00,SW,217,9.0,10.0,92,0.00,,,0.00,0.000000,,2013-10-04 01:52:00,
2013-10-03 22:02:00,56.0,54.0,-100.00,SW,217,9.0,10.0,92,0.00,,,0.00,0.000000,,2013-10-04 02:02:00,
2013-10-03 22:22:00,56.0,55.0,-100.00,West,277,8.0,11.0,96,0.00,,,0.00,0.000000,,2013-10-04 02:22:00,
2013-10-03 22:33:00,56.0,55.0,-100.00,West,277,8.0,11.0,96,0.00,,,0.00,0.000000,,2013-10-04 02:33:00,
2013-10-03 22:43:00,56.0,55.0,-100.00,West,277,8.0,11.0,96,0.00,,,0.00,0.000000,,2013-10-04 02:43:00,
2013-10-03 22:52:00,56.0,55.0,-100.00,West,277,8.0,11.0,96,0.00,,,0.00,0.000000,,2013-10-04 02:52:00,
2013-10-03 23:02:00,56.0,55.0,-100.00,West,277,8.0,11.0,96,0.00,,,0.00,0.000000,,2013-10-04 03:02:00,
2013-10-03 23:22:00,55.0,54.0,-100.00,NW,320,6.0,10.0,97,0.00,,,0.00,0.000000,,2013-10-04 03:22:00,
2013-10-03 23:34:00,55.0,54.0,-100.00,NW,320,6.0,10.0,97,0.00,,,0.00,0.000000,,2013-10-04 03:34:00,
2013-10-03 23:44:00,55.0,54.0,-100.00,NW,320,6.0,10.0,97,0.00,,,0.00,0.000000,,2013-10-04 03:44:00,